Location: Banksville Park
(38.5557°N, 75.1182°W)
Time: 15:05:25
(UTC+00:00)

MINOTAUR IV R/B - Pass Details

Date: 19 September 2020
Orbit: 622 x 642 km, 72.0° (Epoch: 15 October)

Event Time Altitude Azimuth Distance (km) Brightness Sun altitude
Rises 00:11:58 0° 340° (NNW) 2,908 8.5 -14.2°
Reaches altitude 10° 00:14:14 10° 341° (NNW) 1,998 7.6 -14.6°
Maximum altitude 00:18:42 79° 67° (ENE) 640 4.5 -15.5°
Enters shadow 00:22:18 16° 155° (SSE) 1,648 6.4 -16.1°
